sat.trackr.live / text

‹ back to catalog

PAKSAT-MM1

NORAD 59915 · 2024-104A

PAYLOAD ACTIVE UNKNOWN

§ Identity

Operator
Country
PAKI
Launch date
2024-05-30
Launch site
XICLF
Launch vehicle
Mass (kg)
RCS (m²)

Purposes: comms

External: N2YO · Heavens-Above · Gunter

§ Orbital elements

Epoch: 2026-09-19T18:36:38.867040Z

Period
1,436.07 min
Inclination
0.0293°
Eccentricity
0.0002257
Mean motion
1.00273667 rev/d
Perigee alt
35,776.6 km
Apogee alt
35,795.6 km
Semi-major
42,164.2 km
B*
0.0000e+0
RAAN
216.4807°
Arg perigee
317.8725°
Mean anomaly
141.6692°
Rev number
847

§ Raw data

PAKSAT-MM11 59915U 24104A   26262.77544985  .00000149  00000+0  00000+0 0  99992 59915   0.0293 216.4807 0002257 317.8725 141.6692  1.00273667  8472

JSON: /api/v1/satellites/59915 · /tle

For live sub-satellite position, see the globe view (requires WebGL).

§ Visibility from observer

Set your observer location to see the next 7 days of passes ≥ 10°. The values pass through the URL so the page stays shareable.

No JS? Fill the form by hand. The geolocation button needs JavaScript.